Year,Month,Day,Hour,Minute,Value (Times are PST for windspeed in km/hr)
2017,06,06,00,00,0.00
2017,06,06,00,01,0.00
2017,06,06,00,02,0.20
2017,06,06,00,03,0.90
2017,06,06,00,04,1.60
2017,06,06,00,05,0.20
2017,06,06,00,06,0.50
2017,06,06,00,07,0.50
2017,06,06,00,08,1.10
2017,06,06,00,09,0.30
2017,06,06,00,10,3.00
2017,06,06,00,11,2.50
2017,06,06,00,12,3.30
2017,06,06,00,13,3.70
2017,06,06,00,14,4.10
2017,06,06,00,15,3.70
2017,06,06,00,16,5.30
2017,06,06,00,17,3.10
2017,06,06,00,18,3.80
2017,06,06,00,19,3.50
2017,06,06,00,20,1.50
2017,06,06,00,21,3.50
2017,06,06,00,22,4.30
2017,06,06,00,23,3.50
2017,06,06,00,24,3.40
2017,06,06,00,25,3.10
2017,06,06,00,26,3.50
2017,06,06,00,27,2.10
2017,06,06,00,28,2.30
2017,06,06,00,29,3.00
2017,06,06,00,30,3.90
2017,06,06,00,31,2.20
2017,06,06,00,32,3.10
2017,06,06,00,33,3.10
2017,06,06,00,34,2.90
2017,06,06,00,35,3.60
2017,06,06,00,36,3.60
2017,06,06,00,37,2.80
2017,06,06,00,38,2.40
2017,06,06,00,39,0.70
2017,06,06,00,40,3.10
2017,06,06,00,41,2.30
2017,06,06,00,42,3.30
2017,06,06,00,43,3.50
2017,06,06,00,44,3.40
2017,06,06,00,45,3.50
2017,06,06,00,46,2.60
2017,06,06,00,47,4.80
2017,06,06,00,48,6.40
2017,06,06,00,49,6.50
2017,06,06,00,50,4.60
2017,06,06,00,51,4.80
2017,06,06,00,52,5.40
2017,06,06,00,53,2.50
2017,06,06,00,54,4.70
2017,06,06,00,55,3.90
2017,06,06,00,56,4.30
2017,06,06,00,57,5.40
2017,06,06,00,58,6.10
2017,06,06,00,59,6.00
2017,06,06,01,00,6.40
2017,06,06,01,01,6.80
2017,06,06,01,02,6.00
2017,06,06,01,03,6.40
2017,06,06,01,04,5.90
2017,06,06,01,05,5.80
2017,06,06,01,06,6.80
2017,06,06,01,07,6.30
2017,06,06,01,08,5.10
2017,06,06,01,09,5.70
2017,06,06,01,10,4.90
2017,06,06,01,11,7.80
2017,06,06,01,12,5.70
2017,06,06,01,13,6.20
2017,06,06,01,14,5.40
2017,06,06,01,15,7.10
2017,06,06,01,16,6.20
2017,06,06,01,17,6.00
2017,06,06,01,18,6.70
2017,06,06,01,19,6.00
2017,06,06,01,20,7.60
2017,06,06,01,21,6.10
2017,06,06,01,22,5.50
2017,06,06,01,23,5.10
2017,06,06,01,24,6.40
2017,06,06,01,25,7.10
2017,06,06,01,26,6.30
2017,06,06,01,27,6.40
2017,06,06,01,28,4.50
2017,06,06,01,29,5.00
2017,06,06,01,30,6.00
2017,06,06,01,31,4.90
2017,06,06,01,32,5.60
2017,06,06,01,33,4.90
2017,06,06,01,34,4.40
2017,06,06,01,35,4.10
2017,06,06,01,36,4.00
2017,06,06,01,37,1.40
2017,06,06,01,38,2.20
2017,06,06,01,39,2.50
2017,06,06,01,40,3.40
2017,06,06,01,41,0.90
2017,06,06,01,42,0.00
2017,06,06,01,43,0.00
2017,06,06,01,44,0.00
2017,06,06,01,45,0.40
2017,06,06,01,46,0.80
2017,06,06,01,47,2.70
2017,06,06,01,48,3.00
2017,06,06,01,49,1.50
2017,06,06,01,50,0.20
2017,06,06,01,51,1.80
2017,06,06,01,52,1.10
2017,06,06,01,53,1.00
2017,06,06,01,54,1.40
2017,06,06,01,55,1.30
2017,06,06,01,56,3.00
2017,06,06,01,57,1.70
2017,06,06,01,58,0.30
2017,06,06,01,59,0.00
2017,06,06,02,00,0.00
2017,06,06,02,01,0.10
2017,06,06,02,02,0.10
2017,06,06,02,03,0.00
2017,06,06,02,04,0.00
2017,06,06,02,05,0.00
2017,06,06,02,06,0.00
2017,06,06,02,07,0.00
2017,06,06,02,08,0.00
2017,06,06,02,09,0.00
2017,06,06,02,10,0.00
2017,06,06,02,11,0.00
2017,06,06,02,12,0.10
2017,06,06,02,13,0.00
2017,06,06,02,14,0.00
2017,06,06,02,15,0.00
2017,06,06,02,16,0.00
2017,06,06,02,17,0.00
2017,06,06,02,18,0.00
2017,06,06,02,19,0.00
2017,06,06,02,20,0.00
2017,06,06,02,21,0.00
2017,06,06,02,22,0.00
2017,06,06,02,23,0.00
2017,06,06,02,24,0.00
2017,06,06,02,25,0.00
2017,06,06,02,26,0.00
2017,06,06,02,27,0.00
2017,06,06,02,28,0.00
2017,06,06,02,29,0.00
2017,06,06,02,30,0.00
2017,06,06,02,31,0.00
2017,06,06,02,32,0.00
2017,06,06,02,33,0.00
2017,06,06,02,34,0.00
2017,06,06,02,35,0.00
2017,06,06,02,36,0.00
2017,06,06,02,37,0.00
2017,06,06,02,38,0.00
2017,06,06,02,39,0.00
2017,06,06,02,40,0.00
2017,06,06,02,41,0.00
2017,06,06,02,42,0.00
2017,06,06,02,43,0.00
2017,06,06,02,44,0.00
2017,06,06,02,45,0.00
2017,06,06,02,46,0.00
2017,06,06,02,47,0.00
2017,06,06,02,48,0.00
2017,06,06,02,49,0.00
2017,06,06,02,50,0.00
2017,06,06,02,51,0.00
2017,06,06,02,52,0.00
2017,06,06,02,53,0.00
2017,06,06,02,54,0.00
2017,06,06,02,55,0.00
2017,06,06,02,56,0.40
2017,06,06,02,57,0.00
2017,06,06,02,58,0.90
2017,06,06,02,59,1.70
2017,06,06,03,00,1.20
2017,06,06,03,01,1.50
2017,06,06,03,02,0.50
2017,06,06,03,03,0.00
2017,06,06,03,04,0.90
2017,06,06,03,05,2.20
2017,06,06,03,06,1.90
2017,06,06,03,07,2.00
2017,06,06,03,08,2.00
2017,06,06,03,09,0.10
2017,06,06,03,10,0.20
2017,06,06,03,11,0.00
2017,06,06,03,12,0.00
2017,06,06,03,13,0.00
2017,06,06,03,14,0.50
2017,06,06,03,15,2.30
2017,06,06,03,16,1.20
2017,06,06,03,17,1.70
2017,06,06,03,18,1.30
2017,06,06,03,19,2.20
2017,06,06,03,20,2.20
2017,06,06,03,21,3.00
2017,06,06,03,22,3.40
2017,06,06,03,23,2.70
2017,06,06,03,24,2.70
2017,06,06,03,25,3.00
2017,06,06,03,26,0.80
2017,06,06,03,27,1.10
2017,06,06,03,28,1.30
2017,06,06,03,29,0.50
2017,06,06,03,30,1.50
2017,06,06,03,31,1.00
2017,06,06,03,32,2.30
2017,06,06,03,33,3.10
2017,06,06,03,34,3.00
2017,06,06,03,35,2.10
2017,06,06,03,36,1.20
2017,06,06,03,37,3.80
2017,06,06,03,38,2.50
2017,06,06,03,39,2.50
2017,06,06,03,40,1.00
2017,06,06,03,41,1.90
2017,06,06,03,42,1.20
2017,06,06,03,43,2.10
2017,06,06,03,44,2.80
2017,06,06,03,45,3.30
2017,06,06,03,46,2.50
2017,06,06,03,47,3.60
2017,06,06,03,48,3.00
2017,06,06,03,49,1.70
2017,06,06,03,50,0.40
2017,06,06,03,51,2.50
2017,06,06,03,52,2.10
2017,06,06,03,53,2.00
2017,06,06,03,54,1.90
2017,06,06,03,55,2.80
2017,06,06,03,56,4.10
2017,06,06,03,57,4.40
2017,06,06,03,58,4.30
2017,06,06,03,59,3.20
2017,06,06,04,00,3.00
2017,06,06,04,01,1.60
2017,06,06,04,02,0.40
2017,06,06,04,03,2.40
2017,06,06,04,04,1.50
2017,06,06,04,05,1.90
2017,06,06,04,06,3.60
2017,06,06,04,07,1.60
2017,06,06,04,08,2.40
2017,06,06,04,09,1.40
2017,06,06,04,10,2.60
2017,06,06,04,11,2.60
2017,06,06,04,12,4.70
2017,06,06,04,13,4.00
2017,06,06,04,14,2.30
2017,06,06,04,15,1.10
2017,06,06,04,16,2.40
2017,06,06,04,17,2.40
2017,06,06,04,18,2.90
2017,06,06,04,19,2.20
2017,06,06,04,20,2.30
2017,06,06,04,21,3.10
2017,06,06,04,22,3.80
2017,06,06,04,23,3.70
2017,06,06,04,24,1.90
2017,06,06,04,25,1.50
2017,06,06,04,26,3.50
2017,06,06,04,27,3.20
2017,06,06,04,28,4.30
2017,06,06,04,29,4.70
2017,06,06,04,30,6.40
2017,06,06,04,31,3.30
2017,06,06,04,32,3.90
2017,06,06,04,33,4.80
2017,06,06,04,34,3.50
2017,06,06,04,35,5.00
2017,06,06,04,36,5.10
2017,06,06,04,37,4.30
2017,06,06,04,38,3.50
2017,06,06,04,39,2.40
2017,06,06,04,40,2.50
2017,06,06,04,41,3.90
2017,06,06,04,42,2.20
2017,06,06,04,43,1.50
2017,06,06,04,44,3.90
2017,06,06,04,45,4.70
2017,06,06,04,46,4.00
2017,06,06,04,47,4.90
2017,06,06,04,48,3.00
2017,06,06,04,49,1.40
2017,06,06,04,50,1.00
2017,06,06,04,51,2.70
2017,06,06,04,52,2.90
2017,06,06,04,53,3.90
2017,06,06,04,54,4.30
2017,06,06,04,55,3.20
2017,06,06,04,56,4.70
2017,06,06,04,57,4.90
2017,06,06,04,58,4.70
2017,06,06,04,59,4.50
2017,06,06,05,00,4.40
2017,06,06,05,01,4.40
2017,06,06,05,02,3.40
2017,06,06,05,03,3.50
2017,06,06,05,04,3.10
2017,06,06,05,05,3.10
2017,06,06,05,06,3.80
2017,06,06,05,07,3.80
2017,06,06,05,08,4.30
2017,06,06,05,09,5.00
2017,06,06,05,10,3.60
2017,06,06,05,11,4.30
2017,06,06,05,12,5.10
2017,06,06,05,13,2.80
2017,06,06,05,14,3.40
2017,06,06,05,15,4.30
2017,06,06,05,16,2.50
2017,06,06,05,17,3.90
2017,06,06,05,18,2.60
2017,06,06,05,19,2.00
2017,06,06,05,20,2.20
2017,06,06,05,21,1.20
2017,06,06,05,22,0.30
2017,06,06,05,23,2.10
2017,06,06,05,24,0.90
2017,06,06,05,25,0.20
2017,06,06,05,26,2.20
2017,06,06,05,27,1.20
2017,06,06,05,28,1.50
2017,06,06,05,29,1.60
2017,06,06,05,30,1.40
2017,06,06,05,31,1.40
2017,06,06,05,32,0.90
2017,06,06,05,33,1.30
2017,06,06,05,34,2.40
2017,06,06,05,35,3.00
2017,06,06,05,36,3.00
2017,06,06,05,37,3.20
2017,06,06,05,38,3.00
2017,06,06,05,39,1.90
2017,06,06,05,40,1.80
2017,06,06,05,41,1.70
2017,06,06,05,42,2.80
2017,06,06,05,43,4.10
2017,06,06,05,44,3.40
2017,06,06,05,45,3.70
2017,06,06,05,46,1.70
2017,06,06,05,47,2.80
2017,06,06,05,48,2.60
2017,06,06,05,49,0.90
2017,06,06,05,50,1.20
2017,06,06,05,51,1.30
2017,06,06,05,52,0.50
2017,06,06,05,53,0.80
2017,06,06,05,54,2.40
2017,06,06,05,55,2.00
2017,06,06,05,56,2.00
2017,06,06,05,57,3.00
2017,06,06,05,58,2.00
2017,06,06,05,59,2.80
2017,06,06,06,00,3.00
2017,06,06,06,01,1.50
2017,06,06,06,02,1.90
2017,06,06,06,03,1.90
2017,06,06,06,04,3.50
2017,06,06,06,05,2.70
2017,06,06,06,06,3.60
2017,06,06,06,07,4.70
2017,06,06,06,08,6.40
2017,06,06,06,09,3.60
2017,06,06,06,10,3.60
2017,06,06,06,11,5.40
2017,06,06,06,12,5.80
2017,06,06,06,13,6.90
2017,06,06,06,14,5.50
2017,06,06,06,15,6.40
2017,06,06,06,16,6.70
2017,06,06,06,17,6.40
2017,06,06,06,18,7.60
2017,06,06,06,19,6.60
2017,06,06,06,20,5.50
2017,06,06,06,21,5.60
2017,06,06,06,22,5.90
2017,06,06,06,23,5.70
2017,06,06,06,24,5.10
2017,06,06,06,25,6.90
2017,06,06,06,26,6.40
2017,06,06,06,27,7.00
2017,06,06,06,28,6.30
2017,06,06,06,29,5.50
2017,06,06,06,30,6.90
2017,06,06,06,31,6.90
2017,06,06,06,32,7.80
2017,06,06,06,33,6.30
2017,06,06,06,34,7.70
2017,06,06,06,35,5.10
2017,06,06,06,36,5.70
2017,06,06,06,37,5.60
2017,06,06,06,38,5.10
2017,06,06,06,39,3.50
2017,06,06,06,40,3.90
2017,06,06,06,41,3.50
2017,06,06,06,42,2.20
2017,06,06,06,43,3.90
2017,06,06,06,44,4.10
2017,06,06,06,45,4.90
2017,06,06,06,46,4.80
2017,06,06,06,47,3.50
2017,06,06,06,48,7.80
2017,06,06,06,49,7.70
2017,06,06,06,50,5.70
2017,06,06,06,51,5.30
2017,06,06,06,52,5.10
2017,06,06,06,53,6.70
2017,06,06,06,54,4.40
2017,06,06,06,55,6.00
2017,06,06,06,56,4.70
2017,06,06,06,57,2.60
2017,06,06,06,58,6.90
2017,06,06,06,59,8.10
2017,06,06,07,00,7.50
2017,06,06,07,01,7.20
2017,06,06,07,02,6.00
2017,06,06,07,03,8.60
2017,06,06,07,04,6.40
2017,06,06,07,05,8.30
2017,06,06,07,06,7.80
2017,06,06,07,07,10.20
2017,06,06,07,08,7.90
2017,06,06,07,09,7.70
2017,06,06,07,10,5.90
2017,06,06,07,11,5.30
2017,06,06,07,12,5.30
2017,06,06,07,13,4.30
2017,06,06,07,14,6.80
2017,06,06,07,15,6.80
2017,06,06,07,16,5.30
2017,06,06,07,17,5.10
2017,06,06,07,18,7.20
2017,06,06,07,19,6.70
2017,06,06,07,20,6.70
2017,06,06,07,21,5.00
2017,06,06,07,22,5.90
2017,06,06,07,23,5.00
2017,06,06,07,24,6.10
2017,06,06,07,25,6.10
2017,06,06,07,26,3.80
2017,06,06,07,27,4.10
2017,06,06,07,28,5.10
2017,06,06,07,29,5.60
2017,06,06,07,30,6.40
2017,06,06,07,31,7.70
2017,06,06,07,32,5.80
2017,06,06,07,33,5.80
2017,06,06,07,34,7.40
2017,06,06,07,35,8.10
2017,06,06,07,36,7.70
2017,06,06,07,37,10.20
2017,06,06,07,38,8.30
2017,06,06,07,39,8.20
2017,06,06,07,40,7.20
2017,06,06,07,41,6.00
2017,06,06,07,42,6.80
2017,06,06,07,43,9.10
2017,06,06,07,44,9.00
2017,06,06,07,45,8.90
2017,06,06,07,46,7.20
2017,06,06,07,47,6.00
2017,06,06,07,48,7.40
2017,06,06,07,49,8.10
2017,06,06,07,50,6.40
2017,06,06,07,51,3.60
2017,06,06,07,52,5.10
2017,06,06,07,53,7.60
2017,06,06,07,54,5.10
2017,06,06,07,55,4.30
2017,06,06,07,56,4.70
2017,06,06,07,57,4.60
2017,06,06,07,58,5.80
2017,06,06,07,59,7.60
2017,06,06,08,00,8.50
2017,06,06,08,01,8.70
2017,06,06,08,02,9.70
2017,06,06,08,03,9.20
2017,06,06,08,04,8.40
2017,06,06,08,05,8.90
2017,06,06,08,06,8.70
2017,06,06,08,07,8.90
2017,06,06,08,08,8.10
2017,06,06,08,09,5.80
2017,06,06,08,10,10.20
2017,06,06,08,11,10.50
2017,06,06,08,12,9.50
2017,06,06,08,13,9.70
2017,06,06,08,14,9.50
2017,06,06,08,15,7.60
2017,06,06,08,16,12.60
2017,06,06,08,17,9.30
2017,06,06,08,18,5.60
2017,06,06,08,19,8.10
2017,06,06,08,20,5.60
2017,06,06,08,21,9.30
2017,06,06,08,22,9.30
2017,06,06,08,23,8.20
2017,06,06,08,24,5.90
2017,06,06,08,25,5.30
2017,06,06,08,26,9.80
2017,06,06,08,27,8.10
2017,06,06,08,28,7.00
2017,06,06,08,29,7.40
2017,06,06,08,30,8.70
2017,06,06,08,31,5.50
2017,06,06,08,32,4.90
2017,06,06,08,33,5.70
2017,06,06,08,34,4.70
2017,06,06,08,35,7.00
2017,06,06,08,36,5.40
2017,06,06,08,37,6.80
2017,06,06,08,38,5.10
2017,06,06,08,39,7.80
2017,06,06,08,40,6.20
2017,06,06,08,41,5.60
2017,06,06,08,42,4.30
2017,06,06,08,43,4.50
2017,06,06,08,44,5.60
2017,06,06,08,45,3.60
2017,06,06,08,46,5.10
2017,06,06,08,47,3.50
2017,06,06,08,48,0.90
2017,06,06,08,49,1.70
2017,06,06,08,50,2.90
2017,06,06,08,51,0.30
2017,06,06,08,52,3.60
2017,06,06,08,53,2.60
2017,06,06,08,54,3.60
2017,06,06,08,55,6.00
2017,06,06,08,56,3.60
2017,06,06,08,57,3.10
2017,06,06,08,58,3.00
2017,06,06,08,59,1.00
2017,06,06,09,00,0.80
2017,06,06,09,01,3.50
2017,06,06,09,02,3.10
2017,06,06,09,03,4.10
2017,06,06,09,04,4.00
2017,06,06,09,05,5.10
2017,06,06,09,06,4.00
2017,06,06,09,07,4.30
2017,06,06,09,08,3.40
2017,06,06,09,09,5.00
2017,06,06,09,10,4.50
2017,06,06,09,11,5.50
2017,06,06,09,12,8.50
2017,06,06,09,13,4.50
2017,06,06,09,14,4.20
2017,06,06,09,15,6.80
2017,06,06,09,16,7.10
2017,06,06,09,17,5.70
2017,06,06,09,18,5.60
2017,06,06,09,19,6.70
2017,06,06,09,20,6.40
2017,06,06,09,21,4.30
2017,06,06,09,22,5.10
2017,06,06,09,23,5.70
2017,06,06,09,24,4.10
2017,06,06,09,25,5.00
2017,06,06,09,26,6.80
2017,06,06,09,27,5.90
2017,06,06,09,28,5.20
2017,06,06,09,29,6.40
2017,06,06,09,30,7.50
2017,06,06,09,31,9.70
2017,06,06,09,32,9.20
2017,06,06,09,33,5.80
2017,06,06,09,34,7.70
2017,06,06,09,35,7.70
2017,06,06,09,36,9.30
2017,06,06,09,37,5.70
2017,06,06,09,38,6.50
2017,06,06,09,39,5.10
2017,06,06,09,40,5.00
2017,06,06,09,41,7.40
2017,06,06,09,42,8.40
2017,06,06,09,43,11.40
2017,06,06,09,44,9.30
2017,06,06,09,45,7.60
2017,06,06,09,46,7.30
2017,06,06,09,47,6.00
2017,06,06,09,48,6.00
2017,06,06,09,49,9.30
2017,06,06,09,50,7.70
2017,06,06,09,51,5.60
2017,06,06,09,52,4.20
2017,06,06,09,53,6.70
2017,06,06,09,54,7.20
2017,06,06,09,55,2.50
2017,06,06,09,56,3.50
2017,06,06,09,57,6.50
2017,06,06,09,58,5.40
2017,06,06,09,59,7.40
2017,06,06,10,00,8.00
2017,06,06,10,01,2.50
2017,06,06,10,02,5.50
2017,06,06,10,03,5.40
2017,06,06,10,04,6.90
2017,06,06,10,05,6.20
2017,06,06,10,06,5.10
2017,06,06,10,07,7.70
2017,06,06,10,08,7.20
2017,06,06,10,09,8.80
2017,06,06,10,10,8.00
2017,06,06,10,11,8.90
2017,06,06,10,12,7.50
2017,06,06,10,13,7.10
2017,06,06,10,14,4.10
2017,06,06,10,15,6.20
2017,06,06,10,16,7.20
2017,06,06,10,17,8.60
2017,06,06,10,18,12.30
2017,06,06,10,19,7.30
2017,06,06,10,20,5.00
2017,06,06,10,21,7.00
2017,06,06,10,22,7.90
2017,06,06,10,23,4.50
2017,06,06,10,24,6.50
2017,06,06,10,25,2.10
2017,06,06,10,26,5.80
2017,06,06,10,27,3.10
2017,06,06,10,28,7.30
2017,06,06,10,29,5.00
2017,06,06,10,30,8.00
2017,06,06,10,31,6.40
2017,06,06,10,32,9.40
2017,06,06,10,33,6.20
2017,06,06,10,34,6.50
2017,06,06,10,35,6.80
2017,06,06,10,36,5.10
2017,06,06,10,37,7.30
2017,06,06,10,38,9.20
2017,06,06,10,39,9.50
2017,06,06,10,40,10.00
2017,06,06,10,41,8.20
2017,06,06,10,42,8.00
2017,06,06,10,43,10.30
2017,06,06,10,44,6.80
2017,06,06,10,45,7.90
2017,06,06,10,46,7.90
2017,06,06,10,47,8.00
2017,06,06,10,48,8.20
2017,06,06,10,49,5.40
2017,06,06,10,50,8.10
2017,06,06,10,51,8.00
2017,06,06,10,52,8.70
2017,06,06,10,53,5.80
2017,06,06,10,54,3.70
2017,06,06,10,55,5.60
2017,06,06,10,56,5.80
2017,06,06,10,57,6.00
2017,06,06,10,58,4.60
2017,06,06,10,59,3.70
2017,06,06,11,00,5.30
2017,06,06,11,01,7.10
2017,06,06,11,02,6.40
2017,06,06,11,03,4.60
2017,06,06,11,04,3.50
2017,06,06,11,05,1.30
2017,06,06,11,06,3.40
2017,06,06,11,07,7.70
2017,06,06,11,08,7.40
2017,06,06,11,09,7.40
2017,06,06,11,10,6.80
2017,06,06,11,11,8.60
2017,06,06,11,12,6.40
2017,06,06,11,13,8.00
2017,06,06,11,14,8.50
2017,06,06,11,15,6.80
2017,06,06,11,16,9.00
2017,06,06,11,17,8.30
2017,06,06,11,18,8.00
2017,06,06,11,19,10.00
2017,06,06,11,20,8.10
2017,06,06,11,21,6.80
2017,06,06,11,22,7.60
2017,06,06,11,23,10.10
2017,06,06,11,24,8.30
2017,06,06,11,25,7.90
2017,06,06,11,26,7.00
2017,06,06,11,27,6.10
2017,06,06,11,28,6.50
2017,06,06,11,29,9.00
2017,06,06,11,30,7.30
2017,06,06,11,31,7.20
2017,06,06,11,32,8.50
2017,06,06,11,33,6.80
2017,06,06,11,34,4.70
2017,06,06,11,35,5.10
2017,06,06,11,36,6.80
2017,06,06,11,37,6.00
2017,06,06,11,38,6.10
2017,06,06,11,39,9.30
2017,06,06,11,40,8.10
2017,06,06,11,41,7.20
2017,06,06,11,42,5.10
2017,06,06,11,43,7.20
2017,06,06,11,44,8.60
2017,06,06,11,45,6.90
2017,06,06,11,46,6.90
2017,06,06,11,47,6.60
2017,06,06,11,48,6.00
2017,06,06,11,49,5.00
2017,06,06,11,50,5.70
2017,06,06,11,51,6.40
2017,06,06,11,52,7.90
2017,06,06,11,53,10.20
2017,06,06,11,54,10.10
2017,06,06,11,55,9.80
2017,06,06,11,56,6.10
2017,06,06,11,57,6.40
2017,06,06,11,58,7.20
2017,06,06,11,59,6.90
2017,06,06,12,00,6.60
2017,06,06,12,01,6.50
2017,06,06,12,02,8.50
2017,06,06,12,03,10.80
2017,06,06,12,04,9.30
2017,06,06,12,05,7.90
2017,06,06,12,06,7.80
2017,06,06,12,07,8.40
2017,06,06,12,08,7.00
2017,06,06,12,09,6.90
2017,06,06,12,10,8.10
2017,06,06,12,11,6.30
2017,06,06,12,12,7.90
2017,06,06,12,13,8.00
2017,06,06,12,14,7.10
2017,06,06,12,15,6.20
2017,06,06,12,16,5.80
2017,06,06,12,17,5.00
2017,06,06,12,18,6.50
2017,06,06,12,19,10.30
2017,06,06,12,20,9.60
2017,06,06,12,21,8.20
2017,06,06,12,22,9.30
2017,06,06,12,23,8.60
2017,06,06,12,24,8.50
2017,06,06,12,25,5.70
2017,06,06,12,26,6.60
2017,06,06,12,27,6.40
2017,06,06,12,28,5.40
2017,06,06,12,29,6.60
2017,06,06,12,30,5.20
2017,06,06,12,31,5.60
2017,06,06,12,32,5.60
2017,06,06,12,33,8.40
2017,06,06,12,34,7.20
2017,06,06,12,35,8.30
2017,06,06,12,36,6.80
2017,06,06,12,37,7.60
2017,06,06,12,38,8.20
2017,06,06,12,39,7.60
2017,06,06,12,40,8.60
2017,06,06,12,41,6.50
2017,06,06,12,42,6.80
2017,06,06,12,43,5.90
2017,06,06,12,44,7.00
2017,06,06,12,45,6.60
2017,06,06,12,46,6.10
2017,06,06,12,47,9.20
2017,06,06,12,48,5.30
2017,06,06,12,49,7.50
2017,06,06,12,50,5.10
2017,06,06,12,51,5.60
2017,06,06,12,52,7.70
2017,06,06,12,53,8.50
2017,06,06,12,54,8.40
2017,06,06,12,55,7.70
2017,06,06,12,56,6.30
2017,06,06,12,57,7.90
2017,06,06,12,58,8.50
2017,06,06,12,59,8.60
2017,06,06,13,00,6.00
2017,06,06,13,01,5.40
2017,06,06,13,02,8.20
2017,06,06,13,03,7.60
2017,06,06,13,04,6.30
2017,06,06,13,05,8.60
2017,06,06,13,06,9.70
2017,06,06,13,07,8.10
2017,06,06,13,08,7.20
2017,06,06,13,09,9.20
2017,06,06,13,10,7.40
2017,06,06,13,11,6.60
2017,06,06,13,12,6.60
2017,06,06,13,13,8.50
2017,06,06,13,14,7.90
2017,06,06,13,15,7.80
2017,06,06,13,16,7.40
2017,06,06,13,17,8.30
2017,06,06,13,18,8.30
2017,06,06,13,19,8.10
2017,06,06,13,20,9.90
2017,06,06,13,21,10.50
2017,06,06,13,22,8.80
2017,06,06,13,23,6.70
2017,06,06,13,24,7.20
2017,06,06,13,25,5.10
2017,06,06,13,26,6.80
2017,06,06,13,27,9.20
2017,06,06,13,28,9.20
2017,06,06,13,29,9.70
2017,06,06,13,30,8.30
2017,06,06,13,31,9.90
2017,06,06,13,32,9.90
2017,06,06,13,33,7.30
2017,06,06,13,34,5.40
2017,06,06,13,35,4.70
2017,06,06,13,36,4.40
2017,06,06,13,37,5.70
2017,06,06,13,38,5.10
2017,06,06,13,39,6.00
2017,06,06,13,40,6.40
2017,06,06,13,41,5.50
2017,06,06,13,42,5.60
2017,06,06,13,43,5.80
2017,06,06,13,44,7.30
2017,06,06,13,45,6.60
2017,06,06,13,46,5.60
2017,06,06,13,47,4.80
2017,06,06,13,48,4.60
2017,06,06,13,49,4.80
2017,06,06,13,50,7.20
2017,06,06,13,51,7.30
2017,06,06,13,52,10.10
2017,06,06,13,53,5.20
2017,06,06,13,54,3.90
2017,06,06,13,55,5.30
2017,06,06,13,56,2.10
2017,06,06,13,57,1.40
2017,06,06,13,58,3.40
2017,06,06,13,59,4.50
2017,06,06,14,00,5.20
2017,06,06,14,01,3.90
2017,06,06,14,02,5.20
2017,06,06,14,03,4.20
2017,06,06,14,04,5.10
2017,06,06,14,05,5.50
2017,06,06,14,06,6.40
2017,06,06,14,07,8.80
2017,06,06,14,08,9.30
2017,06,06,14,09,6.90
2017,06,06,14,10,7.60
2017,06,06,14,11,8.30
2017,06,06,14,12,6.80
2017,06,06,14,13,4.90
2017,06,06,14,14,6.50
2017,06,06,14,15,4.70
2017,06,06,14,16,4.70
2017,06,06,14,17,4.80
2017,06,06,14,18,6.80
2017,06,06,14,19,8.50
2017,06,06,14,20,9.20
2017,06,06,14,21,8.80
2017,06,06,14,22,7.10
2017,06,06,14,23,7.60
2017,06,06,14,24,6.50
2017,06,06,14,25,6.00
2017,06,06,14,26,7.30
2017,06,06,14,27,7.80
2017,06,06,14,28,3.60
2017,06,06,14,29,5.60
2017,06,06,14,30,5.10
2017,06,06,14,31,6.10
2017,06,06,14,32,6.90
2017,06,06,14,33,7.00
2017,06,06,14,34,8.10
2017,06,06,14,35,7.30
2017,06,06,14,36,8.10
2017,06,06,14,37,10.40
2017,06,06,14,38,9.20
2017,06,06,14,39,7.80
2017,06,06,14,40,7.00
2017,06,06,14,41,4.90
2017,06,06,14,42,6.80
2017,06,06,14,43,5.30
2017,06,06,14,44,5.30
2017,06,06,14,45,6.90
2017,06,06,14,46,8.60
2017,06,06,14,47,7.90
2017,06,06,14,48,5.60
2017,06,06,14,49,5.10
2017,06,06,14,50,8.30
2017,06,06,14,51,8.20
2017,06,06,14,52,8.90
2017,06,06,14,53,8.50
2017,06,06,14,54,7.50
2017,06,06,14,55,7.40
2017,06,06,14,56,9.10
2017,06,06,14,57,6.80
2017,06,06,14,58,5.70
2017,06,06,14,59,7.20
2017,06,06,15,00,8.00
2017,06,06,15,01,7.70
2017,06,06,15,02,7.30
2017,06,06,15,03,7.60
2017,06,06,15,04,7.70
2017,06,06,15,05,7.70
2017,06,06,15,06,7.10
2017,06,06,15,07,7.70
2017,06,06,15,08,7.90
2017,06,06,15,09,8.10
2017,06,06,15,10,7.30
2017,06,06,15,11,6.10
2017,06,06,15,12,7.60
2017,06,06,15,13,7.70
2017,06,06,15,14,7.00
2017,06,06,15,15,8.80
2017,06,06,15,16,7.30
2017,06,06,15,17,6.00
2017,06,06,15,18,6.00
2017,06,06,15,19,7.50
2017,06,06,15,20,7.90
2017,06,06,15,21,6.70
2017,06,06,15,22,5.90
2017,06,06,15,23,7.20
2017,06,06,15,24,6.20
2017,06,06,15,25,6.00
2017,06,06,15,26,5.80
2017,06,06,15,27,6.90
2017,06,06,15,28,7.20
2017,06,06,15,29,7.00
2017,06,06,15,30,6.60
2017,06,06,15,31,5.10
2017,06,06,15,32,7.20
2017,06,06,15,33,6.40
2017,06,06,15,34,6.70
2017,06,06,15,35,6.40
2017,06,06,15,36,6.40
2017,06,06,15,37,6.40
2017,06,06,15,38,7.70
2017,06,06,15,39,6.20
2017,06,06,15,40,5.80
2017,06,06,15,41,5.60
2017,06,06,15,42,5.20
2017,06,06,15,43,6.00
2017,06,06,15,44,6.00
2017,06,06,15,45,5.10
2017,06,06,15,46,4.40
2017,06,06,15,47,4.10
2017,06,06,15,48,4.10
2017,06,06,15,49,6.20
2017,06,06,15,50,5.50
2017,06,06,15,51,6.60
2017,06,06,15,52,6.40
2017,06,06,15,53,7.20
2017,06,06,15,54,7.40
2017,06,06,15,55,7.30
2017,06,06,15,56,6.70
2017,06,06,15,57,7.10
2017,06,06,15,58,7.20
2017,06,06,15,59,6.80
2017,06,06,16,00,7.20
2017,06,06,16,01,4.30
2017,06,06,16,02,5.40
2017,06,06,16,03,5.50
2017,06,06,16,04,6.20
2017,06,06,16,05,6.90
2017,06,06,16,06,6.80
2017,06,06,16,07,6.40
2017,06,06,16,08,5.90
2017,06,06,16,09,5.70
2017,06,06,16,10,4.60
2017,06,06,16,11,5.20
2017,06,06,16,12,4.30
2017,06,06,16,13,4.50
2017,06,06,16,14,5.40
2017,06,06,16,15,5.40
2017,06,06,16,16,5.30
2017,06,06,16,17,7.10
2017,06,06,16,18,5.90
2017,06,06,16,19,6.60
2017,06,06,16,20,6.10
2017,06,06,16,21,6.10
2017,06,06,16,22,5.10
2017,06,06,16,23,5.80
2017,06,06,16,24,3.90
2017,06,06,16,25,5.50
2017,06,06,16,26,5.20
2017,06,06,16,27,5.70
2017,06,06,16,28,6.00
2017,06,06,16,29,5.80
2017,06,06,16,30,5.90
2017,06,06,16,31,5.20
2017,06,06,16,32,6.60
2017,06,06,16,33,6.40
2017,06,06,16,34,8.40
2017,06,06,16,35,7.30
2017,06,06,16,36,7.80
2017,06,06,16,37,6.90
2017,06,06,16,38,7.40
2017,06,06,16,39,6.10
2017,06,06,16,40,6.30
2017,06,06,16,41,7.40
2017,06,06,16,42,6.60
2017,06,06,16,43,6.40
2017,06,06,16,44,6.00
2017,06,06,16,45,5.80
2017,06,06,16,46,5.90
2017,06,06,16,47,7.60
2017,06,06,16,48,5.40
2017,06,06,16,49,7.10
2017,06,06,16,50,9.10
2017,06,06,16,51,6.80
2017,06,06,16,52,7.00
2017,06,06,16,53,6.70
2017,06,06,16,54,7.10
2017,06,06,16,55,5.90
2017,06,06,16,56,7.40
2017,06,06,16,57,8.30
2017,06,06,16,58,8.30
2017,06,06,16,59,7.40
2017,06,06,17,00,7.90
2017,06,06,17,01,7.40
2017,06,06,17,02,6.80
2017,06,06,17,03,5.90
2017,06,06,17,04,5.60
2017,06,06,17,05,6.10
2017,06,06,17,06,6.20
2017,06,06,17,07,6.00
2017,06,06,17,08,6.30
2017,06,06,17,09,7.40
2017,06,06,17,10,6.80
2017,06,06,17,11,6.00
2017,06,06,17,12,4.60
2017,06,06,17,13,6.50
2017,06,06,17,14,7.70
2017,06,06,17,15,8.80
2017,06,06,17,16,8.20
2017,06,06,17,17,9.30
2017,06,06,17,18,4.10
2017,06,06,17,19,3.00
2017,06,06,17,20,5.10
2017,06,06,17,21,8.20
2017,06,06,17,22,7.70
2017,06,06,17,23,7.30
2017,06,06,17,24,4.40
2017,06,06,17,25,4.30
2017,06,06,17,26,4.70
2017,06,06,17,27,4.40
2017,06,06,17,28,7.40
2017,06,06,17,29,5.90
2017,06,06,17,30,4.10
2017,06,06,17,31,3.80
2017,06,06,17,32,3.00
2017,06,06,17,33,3.70
2017,06,06,17,34,3.90
2017,06,06,17,35,3.50
2017,06,06,17,36,3.40
2017,06,06,17,37,3.10
2017,06,06,17,38,4.10
2017,06,06,17,39,3.50
2017,06,06,17,40,3.20
2017,06,06,17,41,3.10
2017,06,06,17,42,4.70
2017,06,06,17,43,4.20
2017,06,06,17,44,4.10
2017,06,06,17,45,4.90
2017,06,06,17,46,6.00
2017,06,06,17,47,5.20
2017,06,06,17,48,5.30
2017,06,06,17,49,4.70
2017,06,06,17,50,3.70
2017,06,06,17,51,4.20
2017,06,06,17,52,4.30
2017,06,06,17,53,5.10
2017,06,06,17,54,4.10
2017,06,06,17,55,4.30
2017,06,06,17,56,4.30
2017,06,06,17,57,4.10
2017,06,06,17,58,6.20
2017,06,06,17,59,6.00
2017,06,06,18,00,7.50
2017,06,06,18,01,6.80
2017,06,06,18,02,4.30
2017,06,06,18,03,4.90
2017,06,06,18,04,4.10
2017,06,06,18,05,4.30